COSMOS 249 DEB, 3506

Orbit data source: Space-Track

COSMOS 249 DEB, 3506 is space debris in LEO originally from a launch on Sun, 20 Oct 1968 UTC launched from the Tyuratam Missile And Space Complex (TTMTR). Debris objects in space refer to the collection of defunct objects orbiting the Earth. Examples of debris include non-operational satellites, rocket bodies, and fragments generated from explosions, collisions, or faulty payload assembly.

Loading next visibility...
Identifier
3506, 1968-091C
Orbit
LEO
Country
Flag of CISCIS
Related business
Manufacturer
Unknown
Mission
Spacecraft
Bus & Motor
Unknown
Mass
Unknown
Launch date (UTC)
1968-10-20 (58 years ago)
Launch vehicle
Unknown
Launch site
Tyuratam Missile And Space Complex (TTMTR)
Object type
Payload
Rocket body
Debris
Shape & HBR
Unknown shape, 0.6 m
Radar Cross Section
Medium (>0.1 m² and <1 m²)

Expand to show TLE details & history
Last TLE update: 11 hours ago

TLE from 11 hours ago
0 COSMOS 249 DEB
1 03506U 68091C   26253.76816988 -.00000026  00000-0  35907-4 0  9996
2 03506  62.3716  49.0454 0940451 281.6625  68.0427 12.91134418717534
Epoch: 2026-09-10T18:26Z
TLE epoch observation values (Epoch: 2026-09-10T18:26:09.877Z)
Latitude
-0.00006°
Longitude
142.70308°
Altitude
1,090.061 km
Speed
7.406 km/s
True Right ascension
03h 16m 10s
True Declination
0° 00' 00"
Sunlit
Object was in daylight at epoch
Visualization orbit readout
Latitude
Unknown
Longitude
Unknown
Altitude
Unknown
Speed
Unknown
Apparent Right ascension
Unknown
Apparent Declination
Unknown
Sunlit
N/A
Visualization observer readout
Local Sidereal Time
22:05:58
Azimuth
Unknown
Elevation
Unknown
Doppler factor
Unknown
Orbital elements
Apogee altitude
2,017.713 km
Perigee altitude
574.283 km
Semi-major axis
7,674.135 km
Eccentricity
0.09405
Inclination
62.3716°
RAAN
49.0454°
Arg. of periapsis
281.6625°
True anomaly
78.43877°
Mean anomaly
68.0427°
Eccentric anomaly
73.20114°
Mean motion
3.22849 °/min
Orbital period
111.51 mins
BSTAR
0.000035907
Loading maneuver chart data...
Computing Atmospheric mass density...

Documentation

Showing up to 5 results
|